EW3364 Weather Reports


Display with metric or nautical units.
time (UTC)temp
F
wind
direction
speed
MPH
gust
MPH
rain 1hr
in
rain 24hr
in
rain mn
in
humidity
%
barometer
mb
20260504174557 76 199 4.0 14.0 0.00 0.00 0.00 46 1018.1
20260504173053 75 264 4.0 17.0 0.00 0.00 0.00 48 1018.1
20260504171555 75 215 6.0 15.0 0.00 0.00 0.00 47 1018.3
20260504081552 58 306 0.0 0.0 0.00 0.00 0.00 85 1018.1
20260504050021 62 246 0.0 2.0 0.00 0.00 0.00 79 1020.0
20260504044521 63 245 0.0 1.0 0.00 0.00 0.00 77 1019.8
20260504043020 63 245 0.0 2.0 0.00 0.00 0.00 77 1020.0
20260504041519 64 242 1.0 3.0 0.00 0.00 0.00 76 1020.0
20260504040021 64 240 1.0 2.0 0.00 0.00 0.00 74 1019.9
20260504034520 64 248 0.0 2.0 0.00 0.00 0.00 73 1020.1
20260504033018 65 248 1.0 4.0 0.00 0.00 0.00 72 1020.0
20260504031518 65 248 1.0 5.0 0.00 0.00 0.00 71 1020.2
20260504030018 65 244 0.0 3.0 0.00 0.00 0.00 68 1020.1
20260504024517 66 242 1.0 4.0 0.00 0.00 0.00 66 1019.9
20260504023016 66 246 2.0 5.0 0.00 0.00 0.00 64 1019.8
20260504021517 66 238 2.0 8.0 0.00 0.00 0.00 63 1019.7
20260504020015 66 240 2.0 6.0 0.00 0.00 0.00 62 1019.5
20260504014515 67 225 1.0 3.0 0.00 0.00 0.00 62 1019.4
20260504013019 67 234 1.0 4.0 0.00 0.00 0.00 59 1019.3
20260504011513 68 236 1.0 4.0 0.00 0.00 0.00 59 1019.2
20260504010013 69 229 1.0 5.0 0.00 0.00 0.00 58 1019.2
20260504004531 70 244 3.0 5.0 0.00 0.00 0.00 55 1019.0
20260504003017 71 239 2.0 5.0 0.00 0.00 0.00 52 1018.9
20260504001527 71 221 1.0 5.0 0.00 0.00 0.00 49 1018.8
20260504000012 72 217 2.0 4.0 0.00 0.00 0.00 48 1018.7
20260503234516 73 212 2.0 5.0 0.00 0.00 0.00 47 1018.8
20260503233009 73 244 3.0 6.0 0.00 0.00 0.00 46 1018.9
20260503231508 73 230 2.0 6.0 0.00 0.00 0.00 44 1018.9
20260503230010 74 195 5.0 8.0 0.00 0.00 0.00 44 1019.0
20260503224509 74 227 1.0 6.0 0.00 0.00 0.00 45 1019.1
20260503223009 75 242 2.0 6.0 0.00 0.00 0.00 43 1019.1
20260503221503 75 260 3.0 7.0 0.00 0.00 0.00 42 1019.3
20260503220006 75 213 3.0 7.0 0.00 0.00 0.00 43 1019.4
20260503214500 75 198 4.0 7.0 0.00 0.00 0.00 41 1019.5
20260503213059 74 211 4.0 10.0 0.00 0.00 0.00 43 1019.7
20260503211558 75 254 4.0 7.0 0.00 0.00 0.00 42 1019.9
20260503210058 74 243 4.0 8.0 0.00 0.00 0.00 41 1020.1
20260503204558 75 215 2.0 7.0 0.00 0.00 0.00 41 1020.3
20260503203057 75 209 3.0 7.0 0.00 0.00 0.00 40 1020.5
20260503201557 75 231 4.0 10.0 0.00 0.00 0.00 42 1020.7
20260503200056 76 119 5.0 10.0 0.00 0.00 0.00 39 1020.9
20260503194619 75 139 4.0 10.0 0.00 0.00 0.00 38 1021.2
20260503193055 75 284 1.0 10.0 0.00 0.00 0.00 40 1021.4
20260503191601 75 157 5.0 12.0 0.00 0.00 0.00 40 1021.5
20260503190056 74 67 0.0 9.0 0.00 0.00 0.00 40 1021.7
20260503184554 74 133 3.0 9.0 0.00 0.00 0.00 39 1021.9
20260503183058 76 119 2.0 6.0 0.00 0.00 0.00 37 1021.9
20260503181602 74 206 1.0 5.0 0.00 0.00 0.00 39 1022.0
20260503180052 73 117 3.0 11.0 0.00 0.00 0.00 39 1022.3